FW9031 Weather Reports


time (UTC)temp
F
wind
direction
speed
knots
gust
knots
rain 1hr
in
rain 24hr
in
rain mn
in
humidity
%
barometer
mb
20260506004624 59 178 0.0 0.9 0.00 0.00 0.00 78 1007.8
20260506003057 60 0 0.0 2.6 0.00 0.00 0.00 76 1007.3
20260506001556 61 0 0.0 1.7 0.00 0.00 0.00 77 1007.2
20260506000054 62 0 0.0 0.0 0.00 0.00 0.00 76 1007.1
20260505234612 64 0 0.0 0.9 0.00 0.00 0.00 71 1007.6
20260505233053 64 0 0.0 1.7 0.00 0.00 0.00 66 1007.5
20260505231553 64 0 0.0 5.2 0.00 0.00 0.00 65 1007.6
20260505230054 64 0 0.9 10.4 0.00 0.00 0.00 63 1007.7
20260505224551 65 0 2.6 12.2 0.00 0.00 0.00 62 1005.0
20260505223102 66 178 2.6 17.4 0.00 0.00 0.00 60 1004.8
20260505221606 67 178 2.6 13.0 0.00 0.00 0.00 60 1004.6
20260505220135 67 178 4.3 13.0 0.00 0.00 0.00 60 1004.5
20260505214615 67 178 3.5 16.5 0.00 0.00 0.00 60 1004.3
20260505213053 68 178 2.6 16.5 0.00 0.00 0.00 59 1004.5
20260505211606 68 178 4.3 13.0 0.00 0.00 0.00 60 1004.2
20260505210052 68 178 6.1 13.9 0.00 0.00 0.00 60 1004.4
20260505204551 69 178 4.3 13.9 0.00 0.00 0.00 58 1004.3
20260505203055 70 178 5.2 17.4 0.00 0.00 0.00 57 1004.4
20260505201607 70 178 4.3 17.4 0.00 0.00 0.00 56 1004.5
20260505200104 70 178 4.3 15.6 0.00 0.00 0.00 56 1004.7
20260505194603 71 178 3.5 12.2 0.00 0.00 0.00 55 1004.7
20260505193054 71 178 5.2 18.2 0.00 0.00 0.00 56 1004.8
20260505191553 71 178 3.5 15.6 0.00 0.00 0.00 55 1005.1
20260505184556 72 178 4.3 12.2 0.00 0.00 0.00 55 1005.2
20260505183056 71 178 4.3 13.9 0.00 0.00 0.00 56 1005.4
20260505181555 71 178 4.3 14.8 0.00 0.00 0.00 55 1005.7
20260505174558 71 178 5.2 13.0 0.00 0.02 0.00 54 1005.9
20260505173053 71 178 3.5 13.0 0.00 0.02 0.00 56 1006.0
20260505171552 71 178 3.5 10.4 0.00 0.02 0.00 57 1006.4
20260505170052 70 178 3.5 9.6 0.00 0.02 0.00 55 1006.8
20260505164607 69 178 4.3 10.4 0.00 0.02 0.00 57 1007.1
20260505163053 67 178 3.5 9.6 0.00 0.02 0.00 60 1007.2
20260505161551 66 178 4.3 10.4 0.00 0.02 0.00 61 1007.4
20260505153053 67 178 2.6 10.4 0.00 0.02 0.00 58 1008.2
20260505151550 68 178 4.3 9.6 0.00 0.02 0.00 58 1008.0
20260505140112 65 178 3.5 10.4 0.00 0.02 0.00 60 1008.0
20260505124559 61 178 2.6 7.8 0.00 0.02 0.00 63 1008.4
20260505123053 61 178 2.6 8.7 0.00 0.02 0.00 64 1008.5
20260505121554 59 178 3.5 7.8 0.00 0.02 0.00 66 1008.5
20260505120110 59 178 2.6 8.7 0.00 0.02 0.00 69 1008.7
20260505114553 57 178 1.7 7.8 0.00 0.02 0.00 72 1008.8
20260505113056 54 178 0.9 4.3 0.00 0.02 0.00 76 1008.6
20260505111553 52 178 0.9 4.3 0.00 0.02 0.00 80 1008.8
20260505110106 50 178 0.0 2.6 0.00 0.02 0.00 82 1008.8
20260505101551 48 0 0.0 2.6 0.00 0.02 0.00 86 1008.6
20260505100056 46 0 0.0 0.0 0.00 0.02 0.00 88 1008.6
20260505094600 46 0 0.0 0.9 0.00 0.02 0.00 88 1008.7
20260505093053 46 0 0.0 0.0 0.00 0.02 0.00 88 1008.5
20260505091606 46 0 0.0 0.0 0.00 0.02 0.00 88 1008.6
20260505090054 46 0 0.0 0.0 0.00 0.02 0.00 87 1008.6
20260505084553 46 0 0.0 0.0 0.00 0.02 0.00 86 1008.8
20260505083053 46 0 0.0 0.0 0.00 0.02 0.00 85 1008.8
20260505081553 46 0 0.0 0.9 0.00 0.02 0.00 86 1008.7
20260505080100 46 0 0.0 0.9 0.00 0.02 0.00 86 1008.8
20260505074554 47 0 0.0 0.0 0.00 0.02 0.00 84 1008.8
20260505073055 47 0 0.0 0.0 0.00 0.02 0.00 83 1008.8
20260505071555 47 0 0.0 0.0 0.00 0.02 0.00 83 1008.8
20260505070057 48 0 0.0 0.0 0.00 0.02 0.00 82 1008.7
20260505064554 48 0 0.0 0.9 0.00 0.02 0.00 81 1008.6
20260505063111 48 0 0.0 0.9 0.00 0.02 0.00 81 1008.6
20260505061556 47 0 0.0 0.0 0.00 0.02 0.00 81 1008.6
20260505060103 48 0 0.0 0.0 0.00 0.02 0.00 80 1008.6
20260505054607 48 0 0.0 0.0 0.00 0.02 0.00 81 1008.7
20260505053100 48 0 0.0 0.0 0.00 0.02 0.00 81 1008.7
20260505051551 48 0 0.0 0.0 0.00 0.02 0.00 82 1008.5
20260505041557 48 0 0.0 0.9 0.00 0.02 0.00 83 1008.1
20260505040056 48 0 0.0 0.0 0.00 0.02 0.00 83 1008.0
20260505034556 48 0 0.0 0.0 0.00 0.02 0.02 82 1008.0
20260505033052 48 0 0.0 0.0 0.00 0.02 0.02 81 1007.9
20260505031603 49 0 0.0 0.0 0.00 0.02 0.02 80 1007.9
20260505030109 50 0 0.0 0.9 0.00 0.02 0.02 78 1007.9
20260505024605 51 178 0.0 4.3 0.00 0.02 0.02 76 1007.9
20260505023056 51 0 0.9 2.6 0.00 0.02 0.02 75 1008.0
20260505021558 52 178 1.7 5.2 0.00 0.02 0.02 74 1007.9
20260505020054 53 0 0.0 1.7 0.00 0.02 0.02 72 1007.9
20260505014609 54 178 0.9 1.7 0.00 0.02 0.02 72 1007.8
20260505013053 54 0 0.0 0.0 0.00 0.02 0.02 70 1007.6
20260505011604 55 0 0.0 0.0 0.00 0.02 0.02 69 1007.7
20260505010053 55 0 0.0 0.0 0.00 0.02 0.02 68 1007.5